Location: Cañada de la Miga
(34.7595°N, 106.2317°W)
Time: 12:05:44
(UTC+00:00)

Transit 4A - Pass Details

Date: 12 December 2021
Orbit: 863 x 981 km, 66.8° (Epoch: 26 January)

Event Time Altitude Azimuth Distance (km) Brightness Sun altitude
Rises 02:17:47 0° 270° (W) 3,476 12.1 -28.7°
Reaches altitude 10° 02:23:48 10° 317° (NW) 2,579 10.6 -29.9°
Maximum altitude 02:24:00 10° 319° (NW) 2,579 10.6 -29.9°
Drops below altitude 10° 02:24:09 10° 320° (NW) 2,581 10.5 -30.0°
Enters shadow 02:28:12 - 355° (N) 3,065 10.6 -30.8°
